Time,TemperatureF,DewpointF,PressureIn,WindDirection,WindDirectionDegrees,WindSpeedMPH,WindSpeedGustMPH,Humidity,HourlyPrecipIn,Conditions,Clouds,dailyrainin,SolarRadiationWatts/m^2,SoftwareType,DateUTC
2013-07-26 00:02:00,81.0,76.0,-100.00,SSW,201,3.0,11.0,86,0.00,,,0.00,0.000000,,2013-07-26 05:02:00,
2013-07-26 00:32:00,79.0,75.0,-100.00,South,181,4.0,7.0,89,0.00,,,0.00,0.000000,,2013-07-26 05:32:00,
2013-07-26 00:43:00,79.0,75.0,-100.00,South,181,4.0,7.0,89,0.00,,,0.00,0.000000,,2013-07-26 05:43:00,
2013-07-26 00:52:00,79.0,75.0,-100.00,South,181,4.0,7.0,89,0.00,,,0.00,0.000000,,2013-07-26 05:52:00,
2013-07-26 01:02:00,79.0,75.0,-100.00,South,181,4.0,7.0,89,0.00,,,0.00,0.000000,,2013-07-26 06:02:00,
2013-07-26 01:33:00,78.0,75.0,-100.00,SSW,212,3.0,6.0,92,0.00,,,0.00,0.000000,,2013-07-26 06:33:00,
2013-07-26 01:43:00,78.0,75.0,-100.00,SSW,212,3.0,6.0,92,0.00,,,0.00,0.000000,,2013-07-26 06:43:00,
2013-07-26 01:52:00,78.0,75.0,-100.00,SSW,212,3.0,6.0,92,0.00,,,0.00,0.000000,,2013-07-26 06:52:00,
2013-07-26 02:02:00,78.0,75.0,-100.00,SSW,212,3.0,6.0,92,0.00,,,0.00,0.000000,,2013-07-26 07:02:00,
2013-07-26 02:32:00,76.0,74.0,-100.00,South,174,3.0,5.0,94,0.00,,,0.00,0.000000,,2013-07-26 07:32:00,
2013-07-26 02:43:00,76.0,74.0,-100.00,South,174,3.0,5.0,94,0.00,,,0.00,0.000000,,2013-07-26 07:43:00,
2013-07-26 02:53:00,76.0,74.0,-100.00,South,174,3.0,5.0,94,0.00,,,0.00,0.000000,,2013-07-26 07:53:00,
2013-07-26 03:02:00,76.0,74.0,-100.00,South,174,3.0,5.0,94,0.00,,,0.00,0.000000,,2013-07-26 08:02:00,
2013-07-26 03:32:00,76.0,74.0,-100.00,SSW,207,4.0,7.0,95,0.00,,,0.00,0.000000,,2013-07-26 08:32:00,
2013-07-26 03:44:00,76.0,74.0,-100.00,SSW,207,4.0,7.0,95,0.00,,,0.00,0.000000,,2013-07-26 08:44:00,
2013-07-26 03:52:00,76.0,74.0,-100.00,SSW,207,4.0,7.0,95,0.00,,,0.00,0.000000,,2013-07-26 08:52:00,
2013-07-26 04:02:00,76.0,74.0,-100.00,SSW,207,4.0,7.0,95,0.00,,,0.00,0.000000,,2013-07-26 09:02:00,
2013-07-26 04:32:00,75.0,73.0,-100.00,SSW,197,3.0,5.0,95,0.00,,,0.00,0.000000,,2013-07-26 09:32:00,
2013-07-26 04:43:00,75.0,73.0,-100.00,SSW,197,3.0,5.0,95,0.00,,,0.00,0.000000,,2013-07-26 09:43:00,
2013-07-26 04:52:00,75.0,73.0,-100.00,SSW,197,3.0,5.0,95,0.00,,,0.00,0.000000,,2013-07-26 09:52:00,
2013-07-26 05:02:00,75.0,73.0,-100.00,SSW,197,3.0,5.0,95,0.00,,,0.00,0.000000,,2013-07-26 10:02:00,
2013-07-26 05:33:00,75.0,74.0,-100.00,SE,144,2.0,4.0,96,0.00,,,-99.99,0.000000,,2013-07-26 10:33:00,
2013-07-26 05:43:00,75.0,74.0,-100.00,SE,144,2.0,4.0,96,0.00,,,-99.99,0.000000,,2013-07-26 10:43:00,
2013-07-26 05:53:00,75.0,74.0,-100.00,SE,144,2.0,4.0,96,0.00,,,-99.99,0.000000,,2013-07-26 10:53:00,
2013-07-26 06:02:00,75.0,74.0,-100.00,SE,144,2.0,4.0,96,0.00,,,-99.99,0.000000,,2013-07-26 11:02:00,
2013-07-26 06:32:00,75.0,74.0,-100.00,ESE,114,2.0,4.0,96,0.00,,,0.00,0.000000,,2013-07-26 11:32:00,
2013-07-26 06:43:00,75.0,74.0,-100.00,ESE,114,2.0,4.0,96,0.00,,,0.00,0.000000,,2013-07-26 11:43:00,
2013-07-26 06:52:00,75.0,74.0,-100.00,ESE,114,2.0,4.0,96,0.00,,,0.00,0.000000,,2013-07-26 11:52:00,
2013-07-26 07:02:00,75.0,74.0,-100.00,ESE,114,2.0,4.0,96,0.00,,,0.00,0.000000,,2013-07-26 12:02:00,
2013-07-26 07:33:00,75.0,74.0,-100.00,SSW,197,2.0,5.0,96,0.00,,,0.00,8.000000,,2013-07-26 12:33:00,
2013-07-26 07:43:00,75.0,74.0,-100.00,SSW,197,2.0,5.0,96,0.00,,,0.00,8.000000,,2013-07-26 12:43:00,
2013-07-26 07:53:00,75.0,74.0,-100.00,SSW,197,2.0,5.0,96,0.00,,,0.00,8.000000,,2013-07-26 12:53:00,
2013-07-26 08:02:00,75.0,74.0,-100.00,SSW,197,2.0,5.0,96,0.00,,,0.00,8.000000,,2013-07-26 13:02:00,
2013-07-26 08:32:00,76.0,75.0,-100.00,SSE,164,2.0,5.0,96,0.00,,,0.00,46.000000,,2013-07-26 13:32:00,
2013-07-26 08:43:00,76.0,75.0,-100.00,SSE,164,2.0,5.0,96,0.00,,,0.00,46.000000,,2013-07-26 13:43:00,
2013-07-26 08:53:00,76.0,75.0,-100.00,SSE,164,2.0,5.0,96,0.00,,,0.00,46.000000,,2013-07-26 13:53:00,
2013-07-26 09:02:00,76.0,75.0,-100.00,SSE,164,2.0,5.0,96,0.00,,,0.00,46.000000,,2013-07-26 14:02:00,
2013-07-26 09:33:00,82.0,78.0,-100.00,WSW,241,3.0,7.0,87,0.00,,,0.00,120.000000,,2013-07-26 14:33:00,
2013-07-26 09:43:00,82.0,78.0,-100.00,WSW,241,3.0,7.0,87,0.00,,,0.00,120.000000,,2013-07-26 14:43:00,
2013-07-26 09:53:00,82.0,78.0,-100.00,WSW,241,3.0,7.0,87,0.00,,,0.00,120.000000,,2013-07-26 14:53:00,
2013-07-26 10:02:00,82.0,78.0,-100.00,WSW,241,3.0,7.0,87,0.00,,,0.00,120.000000,,2013-07-26 15:02:00,
2013-07-26 10:33:00,83.0,75.0,-100.00,WSW,246,6.0,10.0,78,0.00,,,0.00,200.000000,,2013-07-26 15:33:00,
2013-07-26 10:43:00,83.0,75.0,-100.00,WSW,246,6.0,10.0,78,0.00,,,0.00,200.000000,,2013-07-26 15:43:00,
2013-07-26 10:53:00,83.0,75.0,-100.00,WSW,246,6.0,10.0,78,0.00,,,0.00,200.000000,,2013-07-26 15:53:00,
2013-07-26 11:02:00,83.0,75.0,-100.00,WSW,246,6.0,10.0,78,0.00,,,0.00,200.000000,,2013-07-26 16:02:00,
2013-07-26 11:32:00,87.0,76.0,-100.00,SW,223,4.0,10.0,71,0.00,,,0.00,314.000000,,2013-07-26 16:32:00,
2013-07-26 11:43:00,87.0,76.0,-100.00,SW,223,4.0,10.0,71,0.00,,,0.00,314.000000,,2013-07-26 16:43:00,
2013-07-26 11:54:00,87.0,76.0,-100.00,SW,223,4.0,10.0,71,0.00,,,0.00,314.000000,,2013-07-26 16:54:00,
2013-07-26 12:02:00,87.0,76.0,-100.00,SW,223,4.0,10.0,71,0.00,,,0.00,314.000000,,2013-07-26 17:02:00,
2013-07-26 13:33:00,92.0,72.0,-100.00,SSW,194,6.0,11.0,53,-99.99,,,0.00,860.000000,,2013-07-26 18:33:00,
2013-07-26 13:44:00,92.0,72.0,-100.00,SSW,194,6.0,11.0,53,-99.99,,,0.00,860.000000,,2013-07-26 18:44:00,
2013-07-26 13:52:00,92.0,72.0,-100.00,SSW,194,6.0,11.0,53,-99.99,,,0.00,860.000000,,2013-07-26 18:52:00,
2013-07-26 14:03:00,92.0,72.0,-100.00,SSW,194,6.0,11.0,53,-99.99,,,0.00,860.000000,,2013-07-26 19:03:00,
2013-07-26 14:32:00,93.0,72.0,-100.00,SSW,196,6.0,11.0,50,0.00,,,0.00,849.000000,,2013-07-26 19:32:00,
2013-07-26 14:43:00,93.0,72.0,-100.00,SSW,196,6.0,11.0,50,0.00,,,0.00,849.000000,,2013-07-26 19:43:00,
2013-07-26 14:52:00,93.0,72.0,-100.00,SSW,196,6.0,11.0,50,0.00,,,0.00,849.000000,,2013-07-26 19:52:00,
2013-07-26 15:02:00,93.0,72.0,-100.00,SSW,196,6.0,11.0,50,0.00,,,0.00,849.000000,,2013-07-26 20:02:00,
2013-07-26 15:32:00,93.0,70.0,-100.00,South,183,6.0,12.0,48,0.00,,,0.00,739.000000,,2013-07-26 20:32:00,
2013-07-26 15:43:00,93.0,70.0,-100.00,South,183,6.0,12.0,48,0.00,,,0.00,739.000000,,2013-07-26 20:43:00,
2013-07-26 15:53:00,93.0,70.0,-100.00,South,183,6.0,12.0,48,0.00,,,0.00,739.000000,,2013-07-26 20:53:00,
2013-07-26 16:02:00,93.0,70.0,-100.00,South,183,6.0,12.0,48,0.00,,,0.00,739.000000,,2013-07-26 21:02:00,
2013-07-26 16:32:00,94.0,72.0,-100.00,SSW,210,4.0,9.0,49,0.00,,,0.00,490.000000,,2013-07-26 21:32:00,
2013-07-26 16:43:00,94.0,72.0,-100.00,SSW,210,4.0,9.0,49,0.00,,,0.00,490.000000,,2013-07-26 21:43:00,
2013-07-26 16:53:00,94.0,72.0,-100.00,SSW,210,4.0,9.0,49,0.00,,,0.00,490.000000,,2013-07-26 21:53:00,
2013-07-26 17:02:00,94.0,72.0,-100.00,SSW,210,4.0,9.0,49,0.00,,,0.00,490.000000,,2013-07-26 22:02:00,
2013-07-26 17:33:00,94.0,74.0,-100.00,SSE,163,6.0,12.0,52,0.00,,,0.00,442.000000,,2013-07-26 22:33:00,
2013-07-26 17:43:00,94.0,74.0,-100.00,SSE,163,6.0,12.0,52,0.00,,,0.00,442.000000,,2013-07-26 22:43:00,
2013-07-26 17:53:00,94.0,74.0,-100.00,SSE,163,6.0,12.0,52,0.00,,,0.00,442.000000,,2013-07-26 22:53:00,
2013-07-26 18:02:00,94.0,74.0,-100.00,SSE,163,6.0,12.0,52,0.00,,,0.00,442.000000,,2013-07-26 23:02:00,
2013-07-26 18:32:00,90.0,75.0,-100.00,SSE,152,8.0,13.0,62,0.00,,,0.00,324.000000,,2013-07-26 23:32:00,
2013-07-26 18:43:00,90.0,75.0,-100.00,SSE,152,8.0,13.0,62,0.00,,,0.00,324.000000,,2013-07-26 23:43:00,
2013-07-26 18:53:00,90.0,75.0,-100.00,SSE,152,8.0,13.0,62,0.00,,,0.00,324.000000,,2013-07-26 23:53:00,
2013-07-26 19:02:00,90.0,75.0,-100.00,SSE,152,8.0,13.0,62,0.00,,,0.00,324.000000,,2013-07-27 00:02:00,
2013-07-26 19:32:00,87.0,75.0,-100.00,SSE,165,5.0,12.0,68,0.00,,,0.00,134.000000,,2013-07-27 00:32:00,
2013-07-26 19:43:00,87.0,75.0,-100.00,SSE,165,5.0,12.0,68,0.00,,,0.00,134.000000,,2013-07-27 00:43:00,
2013-07-26 19:53:00,87.0,75.0,-100.00,SSE,165,5.0,12.0,68,0.00,,,0.00,134.000000,,2013-07-27 00:53:00,
2013-07-26 20:02:00,87.0,75.0,-100.00,SSE,165,5.0,12.0,68,0.00,,,0.00,134.000000,,2013-07-27 01:02:00,
2013-07-26 20:32:00,85.0,74.0,-100.00,South,176,7.0,13.0,70,0.00,,,0.00,40.000000,,2013-07-27 01:32:00,
2013-07-26 20:44:00,85.0,74.0,-100.00,South,176,7.0,13.0,70,0.00,,,0.00,40.000000,,2013-07-27 01:44:00,
2013-07-26 20:53:00,85.0,74.0,-100.00,South,176,7.0,13.0,70,0.00,,,0.00,40.000000,,2013-07-27 01:53:00,
2013-07-26 21:02:00,85.0,74.0,-100.00,South,176,7.0,13.0,70,0.00,,,0.00,40.000000,,2013-07-27 02:02:00,
2013-07-26 21:32:00,82.0,73.0,-100.00,South,179,6.0,12.0,74,0.00,,,-99.99,0.000000,,2013-07-27 02:32:00,
2013-07-26 21:43:00,82.0,73.0,-100.00,South,179,6.0,12.0,74,0.00,,,-99.99,0.000000,,2013-07-27 02:43:00,
2013-07-26 21:53:00,82.0,73.0,-100.00,South,179,6.0,12.0,74,0.00,,,-99.99,0.000000,,2013-07-27 02:53:00,
2013-07-26 22:03:00,82.0,73.0,-100.00,South,179,6.0,12.0,74,0.00,,,-99.99,0.000000,,2013-07-27 03:03:00,
2013-07-26 22:33:00,81.0,74.0,-100.00,South,188,6.0,11.0,79,0.00,,,0.00,0.000000,,2013-07-27 03:33:00,
2013-07-26 22:44:00,81.0,74.0,-100.00,South,188,6.0,11.0,79,0.00,,,0.00,0.000000,,2013-07-27 03:44:00,
2013-07-26 22:52:00,81.0,74.0,-100.00,South,188,6.0,11.0,79,0.00,,,0.00,0.000000,,2013-07-27 03:52:00,
2013-07-26 23:02:00,81.0,74.0,-100.00,South,188,6.0,11.0,79,0.00,,,0.00,0.000000,,2013-07-27 04:02:00,
2013-07-26 23:32:00,80.0,75.0,-100.00,South,184,6.0,11.0,85,0.00,,,0.00,0.000000,,2013-07-27 04:32:00,
2013-07-26 23:43:00,80.0,75.0,-100.00,South,184,6.0,11.0,85,0.00,,,0.00,0.000000,,2013-07-27 04:43:00,
2013-07-26 23:53:00,80.0,75.0,-100.00,South,184,6.0,11.0,85,0.00,,,0.00,0.000000,,2013-07-27 04:53:00,